Starlink 1321

operational
NORAD ID: 45573 Int'l Des: 2020-025 Owner: SPXS Country: US Constellation: starlink
LEOCIRCULAR

关于 Starlink 1321

正在加载描述...

实时位置

正在加载3D地球...

即将过境

高度历史

Altitude vs Time

uPlot chart will show altitude changes over time

两行轨道根数

1 45573U 20025AU 26095.58336806 .00123295 00000-0 18957-2 0 9998
2 45573 53.0462 289.2986 0003042 185.4170 252.1841 15.53353711 5917
Epoch: Apr 5, 2026 • Age: 3 hours

当前状态

高度 405.1 km
速度 7.67 km/s
星下点 14.48°N, 1.68°E
发射日期 Apr 22, 2020
运行时间 5.9 years
类型 internet

技术详情

分类 Payload
质量 260.00 kg
干质量 248.00 kg
总质量 260.00 kg
长度 0.20 m
直径 2.80 m
跨度 9.00 m
形状 Box + pan
制造商 SPXS
平台类型 Starlink
阶段状态 In Orbit
所有者/国家 SPXS/US

大型星座

Loading constellations...